Location: Arbocrest Acres
(39.2134°N, 84.4144°W)
Time: 02:05:50
(UTC+00:00)

BlueWalker 3 - Visible Passes

Search period start: 29 November 2022 00:00
Search period end: 09 December 2022 00:00
Orbit: 500 x 519 km, 53.2° (Epoch: 28 November)

Date Brightness Start Highest point End Pass type
(mag) Time Alt. Az. Time Alt. Az. Time Alt. Az.
29 Nov 4.3 23:14:35 10° NW 23:16:45 14° NNW 23:18:54 10° NNE visible
30 Nov 4.3 22:56:21 10° NW 22:58:26 14° NNW 23:00:31 10° NNE visible
01 Dec 4.3 22:38:06 10° NW 22:40:07 13° NNW 22:42:07 10° NNE visible
03 Dec 4.5 00:00:47 10° N 00:01:18 11° N 00:01:18 11° N visible
03 Dec 4.3 23:42:22 10° N 23:43:35 11° N 23:43:40 11° N visible
04 Dec 4.2 23:23:56 10° N 23:25:14 11° N 23:26:04 11° NNE visible
05 Dec 4.2 23:05:30 10° NNW 23:06:54 12° N 23:08:17 10° NNE visible
06 Dec 4.8 00:43:11 10° NNW 00:43:21 11° NNW 00:43:21 11° NNW visible
06 Dec 4.2 22:47:04 10° NNW 22:48:33 12° N 22:50:01 10° NNE visible
07 Dec 4.2 00:24:46 10° NNW 00:25:53 17° NNW 00:25:53 17° NNW visible
08 Dec 3.5 00:06:20 10° NNW 00:08:31 25° N 00:08:31 25° N visible
08 Dec 2.7 23:47:53 10° NW 23:51:17 33° NNE 23:51:17 33° NNE visible
